Owensboro, KY

2:25 AM CDT on July 26, 2016 (GMT -0500)
Owensboro-Daviess County

Weather History for KOWB - June, 2013

Change the Weather History Date:

Sunday, June 16, 2013

  Actual Average Record
Temperature  
Mean Temperature 79 °F -  
Max Temperature 88 °F 87 °F 97 °F (1953)
Min Temperature 70 °F 63 °F 32 °F (1999)
Cooling Degree Days 14    
Growing Degree Days 29 (Base 50)    
Moisture  
Dew Point 69 °F    
Average Humidity 79    
Maximum Humidity 100    
Minimum Humidity 57    
Precipitation  
Precipitation 0.03 in - - ()
Sea Level Pressure  
Sea Level Pressure 29.99 in    
Wind  
Wind Speed 4 mph (SSE)    
Max Wind Speed 16 mph    
Max Gust Speed -    
Visibility 10 miles    
Events Rain , Thunderstorm    
Averages and records for this station are not official NWS values.
T = Trace of Precipitation, MM = Missing Value Source: NWS Daily Summary

Daily Weather History Graph

Daily Weather History Graph

Search for Another Location

Airport or City:

Trip Planner

Search our weather history database for the weather conditions in past years. The results will help you decide how hot, cold, wet, or windy it might be!

Date:

Astronomy

Jun. 16, 2013 Rise Set
Actual Time 5:26 AM CDT 8:12 PM CDT
Civil Twilight 4:55 AM CDT 8:43 PM CDT
Nautical Twilight 4:15 AM CDT 9:23 PM CDT
Astronomical Twilight 3:31 AM CDT 10:07 PM CDT
Moon 12:54 PM CDT (6/16) 12:24 AM CDT (6/16)
Length of Visible Light 15h 48m
Length of Day
14h 46m
Waxing Crescent, 50% of the Moon is Illuminated
Jun 16
Waxing Crescent
Jun 16
First Quarter
Jun 23
Full
Jun 29
Last Quarter
Jul 8
New

Hourly Weather History & Observations

Time (CDT) Temp. Heat Index Dew Point Humidity Pressure Visibility Wind Dir Wind Speed Gust Speed Precip Events Conditions
12:56 AM 74.8 °F - 64.9 °F 71% 30.02 in 10.0 mi Calm Calm - N/A   Clear
1:56 AM 72.9 °F - 65.8 °F 79% 30.00 in 10.0 mi South 3.5 mph - N/A   Partly Cloudy
2:56 AM 72.9 °F - 65.8 °F 79% 30.00 in 10.0 mi Calm Calm - N/A   Clear
3:56 AM 72.0 °F - 66.9 °F 84% 30.00 in 10.0 mi Calm Calm - N/A   Clear
4:56 AM 70.9 °F - 66.9 °F 87% 29.99 in 10.0 mi Calm Calm - N/A   Clear
5:56 AM 70.9 °F - 68.0 °F 91% 30.01 in 10.0 mi South 4.6 mph - N/A   Clear
6:56 AM 72.9 °F - 68.0 °F 85% 30.03 in 10.0 mi Calm Calm - N/A   Mostly Cloudy
7:56 AM 74.8 °F - 68.0 °F 79% 30.04 in 10.0 mi SSE 5.8 mph - N/A   Mostly Cloudy
8:56 AM 75.9 °F - 68.9 °F 79% 30.04 in 10.0 mi SSE 5.8 mph - 0.00 in   Mostly Cloudy
9:56 AM 81.0 °F 84.1 °F 68.9 °F 67% 30.02 in 10.0 mi SSW 10.4 mph - N/A   Scattered Clouds
10:56 AM 82.9 °F 86.3 °F 68.9 °F 62% 30.00 in 10.0 mi SSW 10.4 mph - N/A   Mostly Cloudy
11:56 AM 84.9 °F 89.4 °F 70.0 °F 61% 30.00 in 10.0 mi SW 11.5 mph - N/A   Clear
12:56 PM 86.0 °F 90.7 °F 70.0 °F 59% 29.99 in 10.0 mi SW 10.4 mph - N/A   Mostly Cloudy
1:56 PM 86.9 °F 91.7 °F 70.0 °F 57% 29.99 in 10.0 mi West 11.5 mph - N/A   Scattered Clouds
2:56 PM 88.0 °F 93.8 °F 70.9 °F 57% 29.97 in 10.0 mi WSW 16.1 mph - N/A   Scattered Clouds
3:56 PM 77.9 °F - 68.9 °F 74% 29.98 in 10.0 mi NNE 15.0 mph - N/A Thunderstorm Mostly Cloudy
4:29 PM 75.2 °F - 69.8 °F 83% 29.98 in 10.0 mi NE 5.8 mph - N/A   Mostly Cloudy
4:56 PM 77.9 °F - 68.9 °F 74% 29.96 in 10.0 mi Calm Calm - N/A   Clear
5:56 PM 75.9 °F - 72.0 °F 87% 29.96 in 7.0 mi East 4.6 mph - 0.00 in Rain Light Rain
6:56 PM 77.0 °F - 72.9 °F 87% 29.96 in 10.0 mi ENE 4.6 mph - 0.03 in   Clear
7:56 PM 74.8 °F - 72.9 °F 94% 29.96 in 10.0 mi Calm Calm - N/A   Clear
8:56 PM 74.8 °F - 72.0 °F 91% 29.97 in 10.0 mi Calm Calm - N/A   Clear
9:56 PM 72.9 °F - 72.9 °F 100% 29.97 in 10.0 mi East 3.5 mph - N/A   Clear
10:56 PM 72.9 °F - 70.9 °F 93% 29.98 in 10.0 mi Calm Calm - N/A   Clear
11:56 PM 72.9 °F - 70.9 °F 93% 29.97 in 10.0 mi Calm Calm - N/A   Clear